Flag for Canada Weather past 2 weeks in Fort Smith, Northwest Territories, Canada

Now
48 °F

Mostly cloudy.


Feels Like: 48 °F
Forecast: 40 / 49 °F
Wind: 2 mph from Southeast

Location: Fort Smith

Current Time: Oct 20, 2014 at 7:08:35 PM

Latest Report: Oct 20, 2014 at 6:00 PM


Visibility: 15 mi

Pressure: 29.42 "Hg

Humidity: 76%

Dew point: 41 °F

Location of Fort SmithLocation

Historic Weather in Fort Smith — Graph

°F

Fort Smith temperature yesterday

Maximum temperature yesterday: 43 °F (at 11:00 PM)
Minimum temperature yesterday: 37 °F (at 12:00 AM)
Average temperature yesterday: 39 °F

Past Weeks' High & Low Weather Summary

 TemperatureHumidityPressure
High59 °F (Oct 10, 4:00 PM)100% (Oct 7, 1:00 PM)30.31 "Hg (Oct 7, 1:00 PM)
Low21 °F (Oct 16, 5:00 AM)48% (Oct 6, 4:00 PM)29.22 "Hg (Oct 11, 6:00 AM)
Average38 °F83%29.79 "Hg
* Reported Oct 5 5:00 PM — Oct 20 5:00 PM, Fort Smith, Weather by CustomWeather, © 2014

Note: Actual official high and low records may vary slightly from our data, if they occured in-between our weather recording intervals... More about our weather records

Advertising

Fort Smith weather history for previous 24 hours

 ConditionsComfort  
Time TempWeatherWind HumidityBarometerVisibility
5:00 PM
Oct 20
50 °FMostly cloudy.5 mph76%29.41 "Hg15 mi
4:00 PM52 °FMostly cloudy.8 mph72%29.41 "Hg15 mi
3:00 PM52 °FMostly cloudy.13 mph72%29.41 "Hg15 mi
2:00 PM54 °FBroken clouds.13 mph67%29.42 "Hg15 mi
1:00 PM48 °FMostly cloudy.14 mph76%29.44 "Hg15 mi
12:00 PM48 °FPartly sunny.14 mph76%29.46 "Hg15 mi
11:00 AM46 °FBroken clouds.13 mph82%29.47 "Hg15 mi
10:00 AM45 °FPartly sunny.12 mph87%29.47 "Hg15 mi
9:00 AM43 °FPassing clouds.9 mph87%29.47 "Hg15 mi
8:00 AM43 °FPassing clouds.7 mph93%29.49 "Hg15 mi
7:00 AM45 °FPassing clouds.12 mph87%29.51 "Hg15 mi
6:00 AM45 °FPassing clouds.10 mph87%29.52 "Hg15 mi
5:00 AM45 °FPassing clouds.7 mph87%29.55 "Hg15 mi
4:00 AM46 °FPassing clouds.8 mph82%29.57 "Hg15 mi
3:00 AM46 °FPassing clouds.8 mph87%29.57 "Hg15 mi
2:00 AM46 °FOvercast.8 mph87%29.59 "Hg15 mi
1:00 AM45 °FOvercast.8 mph87%29.61 "Hg15 mi
12:00 AM45 °FPassing clouds.7 mph87%29.62 "Hg15 mi
11:00 PM
Oct 19
43 °FPassing clouds.8 mph93%29.64 "Hg15 mi
9:00 PM41 °FLow clouds.6 mph93%29.69 "Hg15 mi
8:00 PM41 °FLow clouds.10 mph93%29.71 "Hg15 mi
7:00 PM41 °FLow clouds.10 mph93%29.71 "Hg15 mi
Weather by CustomWeather, © 2014

See weather overviewHow to use our weather pages